Time,TemperatureF,DewpointF,PressureIn,WindDirection,WindDirectionDegrees,WindSpeedMPH,WindSpeedGustMPH,Humidity,HourlyPrecipIn,Conditions,Clouds,dailyrainin,SoftwareType,DateUTC
2013-03-31 00:01:00,54.0,51.0,30.09,SSW,196,0.0,5.0,90,0.00,,,0.00,,2013-03-31 07:01:00,
2013-03-31 00:11:00,54.0,51.0,30.09,SSW,196,0.0,5.0,90,0.00,,,0.00,,2013-03-31 07:11:00,
2013-03-31 00:22:00,54.0,51.0,30.09,SSW,197,0.0,0.0,91,0.00,,,0.00,,2013-03-31 07:22:00,
2013-03-31 00:32:00,54.0,51.0,30.09,SSW,197,0.0,0.0,91,0.00,,,0.00,,2013-03-31 07:32:00,
2013-03-31 00:42:00,54.0,51.0,30.09,SSW,197,0.0,0.0,91,0.00,,,0.00,,2013-03-31 07:42:00,
2013-03-31 00:52:00,54.0,52.0,30.08,SSW,197,0.0,0.0,92,0.00,,,0.00,,2013-03-31 07:52:00,
2013-03-31 01:01:00,54.0,52.0,30.08,SSW,197,0.0,0.0,92,0.00,,,0.00,,2013-03-31 08:01:00,
2013-03-31 01:12:00,54.0,52.0,30.08,SSW,197,0.0,0.0,92,0.00,,,0.00,,2013-03-31 08:12:00,
2013-03-31 01:22:00,54.0,52.0,30.08,SSW,196,0.0,0.0,92,0.00,,,0.00,,2013-03-31 08:22:00,
2013-03-31 01:31:00,54.0,51.0,30.08,SSW,197,0.0,0.0,91,0.00,,,0.00,,2013-03-31 08:31:00,
2013-03-31 01:42:00,54.0,51.0,30.08,SSW,197,0.0,0.0,91,0.00,,,0.00,,2013-03-31 08:42:00,
2013-03-31 01:52:00,54.0,51.0,30.08,SSW,196,0.0,1.0,90,0.00,,,0.00,,2013-03-31 08:52:00,
2013-03-31 02:01:00,54.0,51.0,30.08,SSW,196,0.0,1.0,90,0.00,,,0.00,,2013-03-31 09:01:00,
2013-03-31 02:11:00,54.0,51.0,30.08,SSW,196,0.0,1.0,90,0.00,,,0.00,,2013-03-31 09:11:00,
2013-03-31 02:21:00,54.0,51.0,30.07,NE,56,0.0,4.0,91,0.00,,,0.00,,2013-03-31 09:21:00,
2013-03-31 02:32:00,54.0,51.0,30.07,NE,56,1.0,2.0,91,0.00,,,0.00,,2013-03-31 09:32:00,
2013-03-31 02:42:00,54.0,51.0,30.07,NE,56,1.0,2.0,91,0.00,,,0.00,,2013-03-31 09:42:00,
2013-03-31 02:53:00,54.0,51.0,30.07,ENE,57,0.0,0.0,90,0.00,,,0.00,,2013-03-31 09:53:00,
2013-03-31 03:02:00,54.0,51.0,30.07,ENE,57,0.0,0.0,91,0.00,,,0.00,,2013-03-31 10:02:00,
2013-03-31 03:12:00,54.0,51.0,30.07,ENE,57,0.0,0.0,91,0.00,,,0.00,,2013-03-31 10:12:00,
2013-03-31 03:22:00,54.0,52.0,30.07,NE,49,0.0,0.0,92,0.00,,,0.00,,2013-03-31 10:22:00,
2013-03-31 03:32:00,53.0,51.0,30.07,NE,49,0.0,0.0,93,0.00,,,0.00,,2013-03-31 10:32:00,
2013-03-31 03:42:00,53.0,51.0,30.07,NE,49,0.0,0.0,93,0.00,,,0.00,,2013-03-31 10:42:00,
2013-03-31 03:53:00,53.0,51.0,30.06,NE,51,0.0,3.0,93,0.00,,,0.00,,2013-03-31 10:53:00,
2013-03-31 04:02:00,54.0,52.0,30.06,NE,51,0.0,1.0,92,0.00,,,0.00,,2013-03-31 11:02:00,
2013-03-31 04:12:00,54.0,52.0,30.06,NE,51,0.0,1.0,92,0.00,,,0.00,,2013-03-31 11:12:00,
2013-03-31 04:22:00,53.0,51.0,30.06,NW,304,0.0,3.0,93,0.00,,,0.00,,2013-03-31 11:22:00,
2013-03-31 04:32:00,53.0,51.0,30.06,NW,304,0.0,0.0,93,0.00,,,0.00,,2013-03-31 11:32:00,
2013-03-31 04:42:00,53.0,51.0,30.06,NW,304,0.0,0.0,93,0.00,,,0.00,,2013-03-31 11:42:00,
2013-03-31 04:52:00,53.0,51.0,30.06,NW,304,0.0,0.0,93,0.00,,,0.00,,2013-03-31 11:52:00,
2013-03-31 05:02:00,52.0,50.0,30.06,NW,305,0.0,0.0,94,0.00,,,0.00,,2013-03-31 12:02:00,
2013-03-31 05:11:00,52.0,50.0,30.06,NW,305,0.0,0.0,94,0.00,,,0.00,,2013-03-31 12:11:00,
2013-03-31 05:22:00,53.0,51.0,30.06,NW,305,0.0,2.0,93,0.00,,,0.00,,2013-03-31 12:22:00,
2013-03-31 05:32:00,51.0,49.0,30.06,NW,304,0.0,0.0,93,0.00,,,0.00,,2013-03-31 12:32:00,
2013-03-31 05:42:00,51.0,49.0,30.06,NW,304,0.0,0.0,93,0.00,,,0.00,,2013-03-31 12:42:00,
2013-03-31 05:52:00,51.0,50.0,30.06,NW,304,0.0,0.0,95,0.00,,,0.00,,2013-03-31 12:52:00,
2013-03-31 06:01:00,52.0,51.0,30.06,NW,305,0.0,0.0,95,0.00,,,0.00,,2013-03-31 13:01:00,
2013-03-31 06:12:00,52.0,51.0,30.06,NW,305,0.0,0.0,95,0.00,,,0.00,,2013-03-31 13:12:00,
2013-03-31 06:22:00,50.0,49.0,30.06,NW,305,0.0,0.0,95,0.00,,,0.00,,2013-03-31 13:22:00,
2013-03-31 06:32:00,50.0,49.0,30.07,NW,304,0.0,0.0,97,0.00,,,0.00,,2013-03-31 13:32:00,
2013-03-31 06:42:00,50.0,49.0,30.07,NW,304,0.0,0.0,97,0.00,,,0.00,,2013-03-31 13:42:00,
2013-03-31 06:52:00,51.0,50.0,30.06,NW,304,0.0,0.0,96,0.00,,,0.00,,2013-03-31 13:52:00,
2013-03-31 07:01:00,52.0,51.0,30.07,NW,304,0.0,0.0,96,0.00,,,0.00,,2013-03-31 14:01:00,
2013-03-31 07:11:00,52.0,51.0,30.07,NW,304,0.0,0.0,96,0.00,,,0.00,,2013-03-31 14:11:00,
2013-03-31 07:22:00,52.0,50.0,30.07,NE,36,2.0,4.0,94,0.00,,,0.00,,2013-03-31 14:22:00,
2013-03-31 07:32:00,53.0,49.0,30.08,NNE,26,0.0,3.0,86,0.00,,,0.00,,2013-03-31 14:32:00,
2013-03-31 07:42:00,53.0,49.0,30.08,NNE,26,0.0,3.0,86,0.00,,,0.00,,2013-03-31 14:42:00,
2013-03-31 07:52:00,52.0,50.0,30.07,North,5,0.0,4.0,92,0.00,,,0.00,,2013-03-31 14:52:00,
2013-03-31 08:01:00,53.0,50.0,30.07,North,360,0.0,1.0,91,0.00,,,0.00,,2013-03-31 15:01:00,
2013-03-31 08:12:00,53.0,50.0,30.07,North,360,0.0,1.0,91,0.00,,,0.00,,2013-03-31 15:12:00,
2013-03-31 08:22:00,52.0,50.0,30.08,East,99,0.0,3.0,93,0.00,,,0.00,,2013-03-31 15:22:00,
2013-03-31 08:33:00,54.0,52.0,30.09,East,100,0.0,1.0,92,0.00,,,0.00,,2013-03-31 15:33:00,
2013-03-31 08:42:00,54.0,52.0,30.09,East,100,0.0,1.0,92,0.00,,,0.00,,2013-03-31 15:42:00,
2013-03-31 08:53:00,54.0,51.0,30.09,ENE,65,0.0,1.0,90,0.00,,,0.00,,2013-03-31 15:53:00,
2013-03-31 09:02:00,54.0,50.0,30.09,West,277,0.0,3.0,85,0.00,,,0.00,,2013-03-31 16:02:00,
2013-03-31 09:12:00,54.0,50.0,30.09,West,277,0.0,3.0,85,0.00,,,0.00,,2013-03-31 16:12:00,
2013-03-31 09:22:00,55.0,51.0,30.09,WNW,292,0.0,5.0,86,0.00,,,0.00,,2013-03-31 16:22:00,
2013-03-31 09:32:00,56.0,52.0,30.09,WNW,296,0.0,4.0,87,0.00,,,0.00,,2013-03-31 16:32:00,
2013-03-31 09:42:00,56.0,52.0,30.09,WNW,296,0.0,4.0,87,0.00,,,0.00,,2013-03-31 16:42:00,
2013-03-31 09:53:00,58.0,53.0,30.09,WNW,296,0.0,0.0,83,0.00,,,0.00,,2013-03-31 16:53:00,
2013-03-31 10:02:00,58.0,53.0,30.09,WNW,296,0.0,0.0,83,0.00,,,0.00,,2013-03-31 17:02:00,
2013-03-31 10:12:00,58.0,53.0,30.09,WNW,296,0.0,0.0,83,0.00,,,0.00,,2013-03-31 17:12:00,
2013-03-31 10:22:00,59.0,54.0,30.09,WNW,290,1.0,2.0,83,0.00,,,0.00,,2013-03-31 17:22:00,
2013-03-31 10:31:00,60.0,54.0,30.09,WNW,288,0.0,4.0,82,0.00,,,0.00,,2013-03-31 17:31:00,
2013-03-31 10:42:00,60.0,54.0,30.09,WNW,288,0.0,4.0,82,0.00,,,0.00,,2013-03-31 17:42:00,
2013-03-31 10:52:00,61.0,54.0,30.09,WNW,284,1.0,4.0,79,0.00,,,0.00,,2013-03-31 17:52:00,
2013-03-31 11:02:00,62.0,55.0,30.09,SW,235,0.0,6.0,79,0.00,,,0.00,,2013-03-31 18:02:00,
2013-03-31 11:12:00,62.0,55.0,30.09,SW,235,0.0,6.0,79,0.00,,,0.00,,2013-03-31 18:12:00,
2013-03-31 11:21:00,62.0,56.0,30.09,SW,233,1.0,5.0,80,0.00,,,0.00,,2013-03-31 18:21:00,
2013-03-31 11:32:00,61.0,56.0,30.09,SSW,205,0.0,5.0,85,0.00,,,0.00,,2013-03-31 18:32:00,
2013-03-31 11:41:00,61.0,56.0,30.09,SSW,205,0.0,5.0,85,0.00,,,0.00,,2013-03-31 18:41:00,
2013-03-31 11:53:00,61.0,57.0,30.10,SW,219,0.0,5.0,86,0.00,,,0.00,,2013-03-31 18:53:00,
2013-03-31 12:02:00,61.0,56.0,30.10,WSW,253,1.0,6.0,85,0.00,,,0.00,,2013-03-31 19:02:00,
2013-03-31 12:11:00,61.0,56.0,30.10,WSW,253,1.0,6.0,85,0.00,,,0.00,,2013-03-31 19:11:00,
2013-03-31 12:21:00,60.0,56.0,30.10,SSW,196,2.0,6.0,87,0.00,,,0.00,,2013-03-31 19:21:00,
2013-03-31 12:32:00,61.0,57.0,30.10,WSW,248,0.0,5.0,88,0.00,,,0.00,,2013-03-31 19:32:00,
2013-03-31 12:42:00,61.0,57.0,30.10,WSW,248,0.0,5.0,88,0.00,,,0.00,,2013-03-31 19:42:00,
2013-03-31 12:54:00,60.0,57.0,30.10,SSW,192,0.0,7.0,91,0.00,,,0.00,,2013-03-31 19:54:00,
2013-03-31 13:02:00,60.0,57.0,30.10,South,180,0.0,5.0,90,0.00,,,0.00,,2013-03-31 20:02:00,
2013-03-31 13:11:00,60.0,57.0,30.10,South,180,0.0,5.0,90,0.00,,,0.00,,2013-03-31 20:11:00,
2013-03-31 13:22:00,59.0,57.0,30.09,SSW,202,2.0,5.0,94,0.01,,,0.01,,2013-03-31 20:22:00,
2013-03-31 13:32:00,59.0,58.0,30.09,SSW,201,3.0,5.0,95,0.03,,,0.03,,2013-03-31 20:32:00,
2013-03-31 13:42:00,59.0,58.0,30.09,SSW,201,3.0,5.0,95,0.03,,,0.03,,2013-03-31 20:42:00,
2013-03-31 13:52:00,58.0,57.0,30.08,South,179,0.0,3.0,97,0.07,,,0.07,,2013-03-31 20:52:00,
2013-03-31 14:02:00,58.0,57.0,30.08,South,179,0.0,3.0,97,0.09,,,0.09,,2013-03-31 21:02:00,
2013-03-31 14:12:00,58.0,57.0,30.08,South,179,0.0,3.0,97,0.09,,,0.09,,2013-03-31 21:12:00,
2013-03-31 14:22:00,59.0,58.0,30.07,South,180,0.0,4.0,97,0.09,,,0.10,,2013-03-31 21:22:00,
2013-03-31 14:33:00,60.0,59.0,30.07,South,180,0.0,1.0,96,0.07,,,0.10,,2013-03-31 21:33:00,
2013-03-31 14:43:00,60.0,59.0,30.07,South,180,0.0,1.0,96,0.07,,,0.10,,2013-03-31 21:43:00,
2013-03-31 14:53:00,59.0,58.0,30.06,South,180,0.0,1.0,95,0.04,,,0.11,,2013-03-31 21:53:00,
2013-03-31 15:02:00,60.0,59.0,30.05,South,182,0.0,4.0,95,0.02,,,0.11,,2013-03-31 22:02:00,
2013-03-31 15:12:00,60.0,59.0,30.05,South,182,0.0,4.0,95,0.02,,,0.11,,2013-03-31 22:12:00,
2013-03-31 15:23:00,59.0,58.0,30.04,SSW,197,0.0,4.0,95,0.02,,,0.12,,2013-03-31 22:23:00,
2013-03-31 15:32:00,60.0,59.0,30.05,SSW,198,0.0,1.0,97,0.02,,,0.12,,2013-03-31 22:32:00,
2013-03-31 15:42:00,60.0,59.0,30.05,SSW,198,0.0,1.0,97,0.02,,,0.12,,2013-03-31 22:42:00,
2013-03-31 15:53:00,60.0,59.0,30.04,SSW,209,0.0,5.0,96,0.02,,,0.13,,2013-03-31 22:53:00,
2013-03-31 16:02:00,58.0,57.0,30.04,SW,222,2.0,7.0,96,0.03,,,0.14,,2013-03-31 23:02:00,
2013-03-31 16:12:00,58.0,57.0,30.04,SW,222,2.0,7.0,96,0.03,,,0.14,,2013-03-31 23:12:00,
2013-03-31 16:22:00,57.0,56.0,30.04,WSW,242,1.0,12.0,97,0.07,,,0.19,,2013-03-31 23:22:00,
2013-03-31 16:31:00,57.0,56.0,30.04,SW,221,4.0,5.0,97,0.07,,,0.19,,2013-03-31 23:31:00,
2013-03-31 16:42:00,57.0,56.0,30.04,SW,221,4.0,5.0,97,0.07,,,0.19,,2013-03-31 23:42:00,
2013-03-31 16:53:00,58.0,57.0,30.03,SSW,196,0.0,5.0,96,0.06,,,0.19,,2013-03-31 23:53:00,
2013-03-31 17:01:00,58.0,56.0,30.03,South,172,3.0,5.0,94,0.05,,,0.19,,2013-04-01 00:01:00,
2013-03-31 17:12:00,58.0,56.0,30.03,South,172,3.0,5.0,94,0.05,,,0.19,,2013-04-01 00:12:00,
2013-03-31 17:22:00,59.0,58.0,30.03,SSW,194,0.0,6.0,95,0.00,,,0.19,,2013-04-01 00:22:00,
2013-03-31 17:31:00,58.0,56.0,30.03,South,178,3.0,9.0,92,0.00,,,0.19,,2013-04-01 00:31:00,
2013-03-31 17:42:00,58.0,56.0,30.03,South,178,3.0,9.0,92,0.00,,,0.19,,2013-04-01 00:42:00,
2013-03-31 17:52:00,58.0,56.0,30.03,South,190,2.0,4.0,94,0.00,,,0.19,,2013-04-01 00:52:00,
2013-03-31 18:01:00,58.0,56.0,30.03,South,190,4.0,11.0,92,0.00,,,0.19,,2013-04-01 01:01:00,
2013-03-31 18:11:00,58.0,56.0,30.03,South,190,4.0,11.0,92,0.00,,,0.19,,2013-04-01 01:11:00,
2013-03-31 18:22:00,57.0,55.0,30.03,South,187,1.0,5.0,94,0.00,,,0.19,,2013-04-01 01:22:00,
2013-03-31 18:31:00,57.0,55.0,30.03,SSW,207,0.0,6.0,94,0.00,,,0.19,,2013-04-01 01:31:00,
2013-03-31 18:42:00,57.0,55.0,30.03,SSW,207,0.0,6.0,94,0.00,,,0.19,,2013-04-01 01:42:00,
2013-03-31 18:52:00,56.0,54.0,30.04,South,184,1.0,10.0,94,0.00,,,0.19,,2013-04-01 01:52:00,
2013-03-31 19:02:00,56.0,54.0,30.04,South,186,0.0,11.0,94,0.00,,,0.19,,2013-04-01 02:02:00,
2013-03-31 19:11:00,56.0,54.0,30.04,South,186,0.0,11.0,94,0.00,,,0.19,,2013-04-01 02:11:00,
2013-03-31 19:21:00,55.0,54.0,30.04,South,190,0.0,5.0,95,0.00,,,0.19,,2013-04-01 02:21:00,
2013-03-31 19:32:00,55.0,54.0,30.04,South,186,2.0,7.0,95,0.00,,,0.19,,2013-04-01 02:32:00,
2013-03-31 19:42:00,55.0,54.0,30.04,South,186,2.0,7.0,95,0.00,,,0.19,,2013-04-01 02:42:00,
2013-03-31 19:53:00,54.0,53.0,30.04,SSW,197,0.0,7.0,95,0.00,,,0.19,,2013-04-01 02:53:00,
2013-03-31 20:02:00,54.0,53.0,30.04,SSW,198,2.0,5.0,95,0.00,,,0.19,,2013-04-01 03:02:00,
2013-03-31 20:11:00,54.0,53.0,30.04,SSW,198,2.0,5.0,95,0.00,,,0.19,,2013-04-01 03:11:00,
2013-03-31 20:22:00,54.0,52.0,30.05,SSW,200,5.0,9.0,94,0.00,,,0.19,,2013-04-01 03:22:00,
2013-03-31 20:33:00,54.0,52.0,30.05,South,191,2.0,7.0,94,0.00,,,0.19,,2013-04-01 03:33:00,
2013-03-31 20:43:00,54.0,52.0,30.05,South,191,2.0,7.0,94,0.00,,,0.19,,2013-04-01 03:43:00,
2013-03-31 20:53:00,54.0,53.0,30.06,SSW,194,2.0,4.0,95,0.00,,,0.19,,2013-04-01 03:53:00,
2013-03-31 21:02:00,54.0,53.0,30.06,SSW,196,0.0,4.0,95,0.00,,,0.19,,2013-04-01 04:02:00,
2013-03-31 21:12:00,54.0,53.0,30.06,SSW,196,0.0,4.0,95,0.00,,,0.19,,2013-04-01 04:12:00,
2013-03-31 21:23:00,53.0,52.0,30.07,South,179,0.0,5.0,96,0.00,,,0.19,,2013-04-01 04:23:00,
2013-03-31 21:32:00,53.0,52.0,30.07,SSW,197,0.0,0.0,96,0.00,,,0.19,,2013-04-01 04:32:00,
2013-03-31 21:42:00,53.0,52.0,30.07,SSW,197,0.0,0.0,96,0.00,,,0.19,,2013-04-01 04:42:00,
2013-03-31 22:02:00,53.0,52.0,30.08,SSW,200,2.0,4.0,97,0.00,,,0.19,,2013-04-01 05:02:00,
2013-03-31 22:12:00,53.0,52.0,30.08,SSW,200,2.0,4.0,97,0.00,,,0.19,,2013-04-01 05:12:00,
2013-03-31 22:22:00,53.0,52.0,30.08,SSW,205,0.0,2.0,97,0.00,,,0.19,,2013-04-01 05:22:00,
2013-03-31 22:32:00,53.0,52.0,30.08,SSW,207,0.0,1.0,97,0.00,,,0.19,,2013-04-01 05:32:00,
2013-03-31 22:42:00,53.0,52.0,30.08,SSW,207,0.0,1.0,97,0.00,,,0.19,,2013-04-01 05:42:00,
2013-03-31 22:52:00,53.0,52.0,30.09,SSW,207,1.0,3.0,98,0.00,,,0.19,,2013-04-01 05:52:00,
2013-03-31 23:01:00,52.0,51.0,30.09,SSW,208,0.0,4.0,98,0.00,,,0.19,,2013-04-01 06:01:00,
2013-03-31 23:12:00,52.0,51.0,30.09,SSW,208,0.0,4.0,98,0.00,,,0.19,,2013-04-01 06:12:00,
2013-03-31 23:22:00,52.0,51.0,30.09,SSW,209,0.0,0.0,98,0.00,,,0.19,,2013-04-01 06:22:00,
2013-03-31 23:32:00,52.0,51.0,30.09,SSW,209,0.0,1.0,98,0.00,,,0.19,,2013-04-01 06:32:00,
2013-03-31 23:42:00,52.0,51.0,30.09,SSW,209,0.0,1.0,98,0.00,,,0.19,,2013-04-01 06:42:00,
2013-03-31 23:52:00,52.0,51.0,30.09,SSW,209,0.0,0.0,98,0.00,,,0.19,,2013-04-01 06:52:00,